Regional Weather Roundup
Issued by NWS

Home | Current Version | Previous Version | Text Only | Print | Product List | Glossary On
Versions: 1 2 3 4 5 6 7 8 9 10 11 12 13 14 15 16 17 18 19 20 21 22 23 24 25 26 27 28 29 30 31 32 33 34 35 36 37 38 39 40 41 42 43 44 45 46 47 48 49 50
000
ASUS42 KFFC 311703
RWRGA
WEATHER ROUNDUP FOR GEORGIA
NATIONAL WEATHER SERVICE PEACHTREE CITY GA
1200 PM EST SAT JAN 31 2015

NOTE: "FAIR" INDICATES FEW OR NO CLOUDS BELOW 12,000 FEET WITH NO
SIGNIFICANT WEATHER AND/OR OBSTRUCTIONS TO VISIBILITY.

* = USE WITH CAUTION. THE STATIONS MARKED WITH AN ASTERISK MAY NOT
REPORT WEATHER SUCH AS PRECIPITATION, FOG, OR THUNDER AND ARE NOT
QUALITY CONTROLLED BY NWS.

THE REMARK "TC" DENOTES TEMPERATURE READING IN DEGREES CELSIUS.

GAZ001>058-311800-
NORTH GEORGIA

CITY           SKY/WX    TMP DP  RH WIND       PRES   REMARKS
ATLANTA        PTSUNNY   46  17  31 CALM      30.37F
ATHENS         SUNNY     47  14  26 VRB3      30.38F
CHAMBLEE       MOSUNNY   46  17  31 SW5       30.37F
PEACHTREE CITY PTSUNNY   48  20  32 VRB3      30.38F
ROME           PTSUNNY   44  18  35 CALM      30.39S
WEST ATLANTA   PTSUNNY   46  20  35 CALM      30.38F
GAINESVILLE    SUNNY     46  12  25 CALM      30.36F
CARTERSVILLE   MOSUNNY   41  21  44 VRB3      30.39F


CITY           SKY/WX    TMP DP  RH WIND       PRES   REMARKS
DALTON*        MOSUNNY   41  21  45 CALM      30.40S
MARIETTA       PTSUNNY   46  17  31 S5        30.37F
KENNESAW*      PTSUNNY   43  18  36 S6        30.40S
$$

GAZ059>098-102>109-311800-
CENTRAL GEORGIA

CITY           SKY/WX    TMP DP  RH WIND       PRES   REMARKS
AUGUSTA-BUSH   SUNNY     48  16  27 SW5       30.41F
AUGUSTA-DANIEL SUNNY     48  15  26 SW6       30.40F
COLUMBUS       SUNNY     48  21  34 SE6       30.39F
MACON          SUNNY     49  23  36 SE5       30.39F
ROBINS AFB     MOSUNNY   51  19  28 VRB5      30.40F


CITY           SKY/WX    TMP DP  RH WIND       PRES   REMARKS
LAGRANGE*      SUNNY     52  26  36 CALM      30.38F
SYLVANIA*      SUNNY     48  22  35 CALM      30.42F
MILLEDGEVILLE* SUNNY     46  25  42 CALM      30.40F
$$

GAZ099>101-110>166-311800-
SOUTH GEORGIA

CITY           SKY/WX    TMP DP  RH WIND       PRES   REMARKS
SAVANNAH       MOSUNNY   50  12  21 CALM      30.42F
VALDOSTA       SUNNY     55  27  34 E9        30.37F
ALMA           SUNNY     53  19  26 VRB5      30.38F
ST SIMONS      SUNNY     53  32  44 NE14      30.40S
FT STEWART     SUNNY     52  17  25 VRB7      30.39F
ALBANY         SUNNY     54  23  30 E7        30.40F
HUNTER AFB     SUNNY     51  17  25 VRB2      30.40S
MOODY AFB      SUNNY     56  24  29 E8        30.36F
BRUNSWICK      SUNNY     55  30  38 NE14      30.41S


CITY           SKY/WX    TMP DP  RH WIND       PRES   REMARKS
BAINBRIDGE*    SUNNY     59  32  36 SE6       30.37F
MOULTRIE*      SUNNY     54  28  37 E7        30.38F
VIDALIA*       SUNNY     52  23  32 E9        30.40F
WAYCROSS*      SUNNY     57  28  31 E5        30.38F
DOUGLAS*       SUNNY     55  19  24 E6        30.40F
$$



USA.gov is the U.S. government's official web portal to all federal, state and local government web resources and services.